Wind_Speed
41 40 37 34 31 28 27 26 25 24 23 23 22 21 21 20 19 18 17 16 17 17 17 17 18 18 19 19 19 19 19 20 20 20 20 21 21 22 22 23 25 26 26 27 27 27 28 28 29 30 31 32 33 33 34 35 37 38 39 40 42 42 43 43 44 44 45 45 45 43 41 39 35 31 28 25 23 21 19 19 21 21 22 22 21
42 40 37 35 32 30 28 27 27 26 26 25 24 23 22 21 20 19 18 18 19 19 19 19 20 20 21 21 22 22 22 22 22 22 22 22 23 23 23 24 26 28 29 29 28 28 29 30 31 31 32 33 34 36 37 38 39 40 41 42 44 45 46 47 47 47 47 47 47 45 42 39 36 32 29 26 23 22 21 20 21 21 22 22 22
42 40 38 36 33 32 30 30 29 28 28 27 25 24 23 22 21 20 20 21 21 21 21 22 22 22 23 23 24 24 24 25 25 24 24 24 25 25 25 26 28 29 30 30 30 30 31 32 32 33 34 35 36 38 39 40 41 43 44 45 47 48 49 50 51 51 50 49 48 45 42 38 35 32 29 26 24 22 22 21 21 21 22 23 23
42 41 39 37 35 34 33 32 31 30 28 27 26 25 24 24 23 22 23 23 23 23 23 24 24 24 25 25 26 26 26 27 27 26 26 26 26 27 28 29 29 30 30 30 31 32 33 34 35 36 37 38 39 40 42 43 44 46 47 49 50 51 52 53 53 53 52 50 46 43 39 36 34 31 28 26 25 23 22 22 21 22 22 23 23
43 42 40 38 37 36 34 33 31 29 28 27 26 25 25 25 25 24 25 25 24 25 25 25 26 26 26 27 27 28 28 28 28 28 27 27 28 29 30 31 31 31 31 31 32 34 35 37 38 39 40 41 42 44 45 47 48 50 51 52 53 54 55 55 55 53 51 47 44 40 36 33 32 31 28 25 24 24 23 22 22 22 22 23 23
43 43 42 40 39 37 36 34 31 30 28 28 27 28 28 27 27 26 26 26 26 26 27 27 27 28 28 28 28 29 29 29 28 28 28 29 29 31 32 33 33 32 33 34 35 36 37 39 40 41 43 44 45 47 49 51 52 53 54 55 56 57 57 55 53 49 46 43 40 38 35 31 28 28 26 24 23 24 24 22 22 22 22 22 23
43 42 42 42 40 38 37 34 32 31 30 30 30 31 30 29 28 28 27 27 28 28 28 29 29 28 28 29 30 29 29 30 30 30 30 31 32 33 34 34 35 35 35 36 38 39 40 41 42 44 45 47 49 50 52 54 55 57 57 58 59 57 55 51 48 45 43 40 37 36 34 31 27 26 24 23 23 24 24 22 21 22 22 21 21
43 42 42 42 41 39 37 35 33 32 32 32 33 32 31 30 29 28 28 29 30 30 30 30 30 30 30 30 30 31 30 30 31 31 32 33 34 35 35 36 37 38 38 39 40 41 42 44 45 47 48 50 52 53 55 57 58 59 59 59 57 53 49 46 43 42 41 39 37 34 33 30 27 25 23 21 22 24 25 22 21 22 22 21 20
44 43 42 41 40 39 37 35 34 33 33 33 33 32 31 30 30 30 30 31 31 32 31 31 31 31 31 31 31 32 32 32 32 33 34 35 36 37 37 38 39 40 41 42 43 44 46 47 49 50 52 54 55 56 58 59 60 59 57 54 51 47 45 42 41 40 40 40 37 34 32 29 27 24 23 21 21 23 24 23 21 21 21 20 20
44 44 43 41 39 38 37 36 35 34 34 33 33 32 32 32 33 33 33 32 32 33 33 32 32 32 32 32 32 32 33 33 34 34 35 37 38 38 39 40 41 42 43 44 45 47 49 50 52 54 56 57 59 60 60 60 58 55 52 48 45 43 42 42 41 40 40 39 38 34 31 28 26 24 23 21 21 23 23 22 21 21 22 22 21
43 43 43 41 39 38 37 37 36 35 35 35 34 34 34 35 35 35 34 33 33 34 34 34 33 33 33 34 34 34 35 35 35 36 37 38 39 40 41 42 43 44 45 47 48 50 52 53 55 57 59 60 61 60 59 56 53 50 47 45 43 42 41 41 42 42 40 38 37 34 31 29 26 24 23 22 22 22 22 22 22 22 22 23 24
42 42 42 41 40 39 38 37 37 37 37 37 36 36 36 36 36 35 34 34 34 34 34 34 34 34 35 35 36 36 36 36 37 37 38 39 40 42 43 44 45 47 48 50 51 53 55 56 58 59 60 60 59 56 53 50 48 46 45 44 43 43 43 42 42 43 41 38 36 33 30 29 26 23 21 20 20 20 21 21 22 22 23 23 25
40 40 40 40 40 39 38 38 38 38 38 37 37 37 37 37 36 35 35 34 35 35 34 35 36 36 36 36 37 37 37 38 38 39 39 41 42 44 45 47 48 49 51 53 55 56 57 58 59 58 57 55 53 52 50 48 46 45 44 43 43 43 43 43 42 42 41 37 34 31 28 26 24 20 18 18 19 20 22 22 22 23 24 25 26
39 39 39 40 40 40 39 38 38 38 38 38 37 37 37 37 36 35 35 35 35 36 36 37 37 37 38 38 38 38 38 39 40 40 41 42 44 46 48 50 52 53 55 56 57 58 58 57 55 53 51 50 49 49 49 48 47 46 45 44 43 43 44 43 41 40 39 36 32 28 23 22 21 18 16 18 19 21 23 23 23 23 25 26 28
38 39 39 39 39 39 39 38 38 38 38 38 38 38 37 37 36 36 36 36 37 37 38 38 38 38 39 39 40 40 40 41 42 43 43 44 46 48 50 53 55 56 57 58 57 56 54 52 50 49 48 48 48 47 47 47 47 46 46 45 44 44 45 43 40 38 36 34 31 26 21 20 18 16 15 18 20 22 24 25 25 25 26 28 30
38 38 38 38 38 38 38 38 37 37 37 38 38 38 37 37 37 37 37 38 38 39 39 39 39 39 40 41 41 41 42 43 44 45 46 47 49 51 53 55 57 57 56 55 52 51 49 48 47 46 46 46 45 45 45 45 45 46 45 45 44 45 46 43 39 37 34 32 31 25 20 18 16 15 17 19 21 23 24 25 26 27 29 31 33
38 38 38 38 38 38 38 37 37 38 38 38 39 38 38 38 38 38 39 39 39 39 39 39 39 40 41 42 43 44 45 46 47 48 49 51 52 54 55 55 55 54 52 49 47 47 46 46 45 44 44 44 43 43 43 42 43 44 45 44 43 44 46 44 40 37 33 31 30 26 21 20 19 19 21 21 23 24 24 25 26 28 31 34 36
38 38 39 38 38 39 38 38 39 39 40 40 39 39 39 39 39 39 39 39 39 39 39 40 41 42 43 44 45 46 47 49 50 51 53 53 54 54 52 50 49 47 45 44 44 44 44 44 43 42 43 44 44 43 43 42 41 42 43 43 43 43 44 42 39 36 33 31 29 26 23 22 21 22 23 23 24 26 27 26 26 28 32 35 39
39 39 38 39 39 40 40 40 40 41 40 40 39 39 39 39 40 40 40 40 40 41 42 43 43 44 45 47 48 49 50 52 53 53 54 53 51 49 46 45 43 41 40 41 41 41 41 41 41 42 43 44 45 45 45 44 43 43 43 43 44 44 45 42 38 34 32 30 28 27 25 25 25 24 24 25 28 32 34 32 29 29 31 34 38
41 40 40 40 40 40 41 41 41 41 40 40 40 40 41 41 41 41 42 42 43 43 44 45 46 47 49 50 51 52 52 53 52 51 50 47 44 42 41 41 40 39 39 40 40 40 40 40 40 41 41 43 45 46 46 46 45 44 44 44 45 45 45 44 41 36 31 28 29 29 29 29 29 26 26 30 35 40 43 40 34 32 33 36 40
44 43 43 42 42 42 43 42 42 42 42 42 42 42 42 43 43 43 44 44 45 46 47 48 49 50 51 51 52 51 50 49 47 45 42 40 39 38 38 38 38 37 38 39 39 40 41 41 41 41 41 43 45 46 46 47 46 45 45 45 45 45 45 44 43 40 35 30 28 30 32 33 32 30 31 35 41 46 49 43 35 33 35 38 42
46 46 46 45 45 45 44 44 44 44 44 44 44 44 44 45 45 45 46 46 47 49 49 50 51 51 50 49 48 46 44 42 40 38 37 36 36 35 35 35 35 35 37 39 41 42 44 45 45 46 45 46 48 48 48 49 48 48 48 47 45 45 45 43 42 41 39 36 32 31 34 36 36 35 35 37 42 45 46 40 33 32 34 37 42
48 48 48 48 47 46 46 46 46 46 46 46 46 46 46 47 47 48 48 49 49 49 49 48 48 46 45 43 41 39 37 36 35 35 35 35 34 34 35 35 35 36 38 40 43 44 46 47 48 49 50 50 51 52 52 52 52 52 52 51 49 47 45 44 43 41 39 39 38 36 36 38 40 39 39 41 44 44 40 35 32 32 34 36 40
51 50 50 50 49 48 48 48 48 48 48 48 48 48 48 49 49 49 48 47 46 45 43 42 41 40 39 38 37 36 34 33 33 34 35 35 35 36 36 37 38 38 39 41 44 45 47 48 49 51 52 52 52 53 54 55 56 56 56 56 54 50 47 46 46 44 41 40 40 39 39 39 41 41 41 44 47 45 38 32 29 31 33 36 40
52 51 51 51 50 49 49 49 49 49 49 48 49 48 48 47 46 45 43 41 40 39 38 37 36 36 36 35 34 33 32 32 33 36 37 37 38 39 39 40 41 41 42 43 45 47 49 50 51 53 54 55 55 56 57 58 59 60 60 61 59 55 51 48 47 47 45 42 42 42 41 40 40 41 42 46 49 46 39 31 28 30 33 36 40
52 51 50 50 49 48 48 47 47 47 46 46 45 44 43 41 40 38 37 36 36 35 35 35 35 34 34 34 33 32 32 33 35 37 38 39 40 41 42 43 44 44 45 46 47 49 51 53 54 55 57 58 59 60 60 62 63 64 65 65 63 59 54 49 47 48 48 45 44 43 42 40 38 38 40 43 44 42 38 36 37 41 45 46 48
47 48 47 47 46 45 44 43 42 41 40 39 38 38 37 36 35 35 35 35 34 34 34 34 34 34 34 34 34 34 35 35 36 38 40 41 42 43 44 45 46 47 48 49 50 52 53 55 57 58 59 60 62 63 63 64 65 66 66 66 65 62 57 52 49 48 48 47 45 44 43 40 37 39 44 45 44 43 45 48 50 54 59 60 60
40 41 42 41 41 40 39 38 37 36 35 35 35 36 35 34 34 35 35 35 34 34 34 34 35 35 36 36 36 37 38 39 39 40 41 42 43 44 45 46 48 49 50 51 52 54 55 56 58 60 61 62 63 65 66 65 65 64 64 64 64 63 60 56 51 49 49 48 45 45 44 40 35 38 45 47 48 52 55 55 55 58 61 63 65
37 37 38 38 37 37 37 36 36 35 35 36 36 36 35 35 35 35 35 35 35 35 36 36 37 38 39 39 40 40 41 41 42 43 43 43 44 45 47 48 50 51 52 53 54 55 57 58 59 61 62 63 63 64 64 63 61 60 61 61 62 61 61 58 53 50 50 49 45 45 46 42 37 39 44 48 53 59 60 56 55 57 59 61 64
37 38 38 38 38 38 37 37 36 37 38 38 37 36 35 35 36 36 36 36 37 38 38 39 40 42 42 42 43 43 43 44 45 45 45 45 46 47 49 50 52 54 55 55 56 57 58 60 61 62 62 61 59 57 57 58 58 58 59 59 59 59 60 59 56 52 51 49 46 47 48 46 43 46 51 53 56 59 59 56 54 56 58 60 62
39 39 40 39 39 39 38 38 39 39 39 38 37 37 37 37 38 38 39 39 40 41 41 43 44 45 45 45 46 46 46 47 47 47 48 48 48 49 51 53 54 56 57 58 58 59 60 61 62 62 61 58 54 53 54 56 58 59 58 58 58 59 58 57 55 54 52 49 47 48 48 47 46 47 51 55 55 56 59 61 61 61 62 64 65
40 40 40 40 40 39 39 39 40 40 40 40 39 39 40 40 41 41 42 42 43 44 45 46 47 47 48 48 48 49 49 50 50 50 50 50 51 52 54 56 57 58 59 60 61 61 61 62 63 62 59 57 55 55 56 57 59 61 62 62 62 61 60 57 53 50 49 48 48 49 47 46 46 47 49 53 55 56 58 61 63 62 61 63 66
42 41 40 40 40 40 40 40 41 41 42 42 43 43 43 44 44 45 45 46 47 47 48 49 49 50 50 51 51 52 52 53 53 53 53 53 54 56 57 58 60 61 62 63 63 63 63 63 63 61 59 57 57 58 59 60 63 65 68 69 67 62 60 57 52 48 46 46 49 49 47 45 45 47 49 51 52 53 52 52 56 59 60 62 67
44 43 42 42 42 42 42 42 43 44 44 45 45 46 46 47 48 48 49 50 50 50 51 51 52 53 53 54 54 55 55 56 56 56 56 57 58 59 60 62 63 64 64 65 65 65 65 65 65 62 60 59 59 60 62 64 67 70 72 73 68 60 56 54 51 47 45 46 48 48 46 44 42 42 45 48 50 52 51 50 53 57 59 60 65
46 46 46 45 46 46 46 45 46 46 47 48 48 49 50 51 51 51 52 52 53 53 53 54 55 55 56 56 57 57 58 58 58 59 59 60 61 63 64 65 65 66 66 67 67 67 67 67 66 64 62 61 62 63 65 67 71 74 75 73 66 57 52 50 47 44 44 46 47 46 44 43 41 37 37 41 44 46 50 52 53 55 57 59 62
50 50 50 50 49 49 49 49 49 50 50 51 52 52 53 54 54 54 54 55 55 56 56 57 57 58 58 59 60 60 61 61 61 62 63 64 65 65 66 67 67 68 68 69 69 69 70 69 66 64 63 63 63 65 66 70 75 78 76 71 63 54 49 46 43 41 42 44 46 45 43 42 40 35 34 37 37 37 41 45 46 48 55 59 60
53 53 53 52 52 52 52 53 53 54 54 54 55 55 56 56 56 56 57 57 58 59 59 60 60 60 61 62 63 63 64 64 65 66 66 67 67 68 68 69 69 70 71 71 71 72 72 71 68 66 64 64 64 65 67 72 76 76 73 69 62 52 46 43 40 40 42 42 42 42 42 42 40 37 35 35 33 31 33 37 41 44 48 52 53
56 56 55 56 56 56 57 57 57 57 57 57 57 58 59 59 60 60 60 61 61 62 63 63 64 64 64 65 66 67 67 68 68 69 69 69 69 69 70 71 71 72 73 73 73 74 73 72 69 66 65 64 64 65 67 70 71 69 68 67 62 53 45 39 36 37 39 38 36 39 41 39 36 32 30 30 29 27 29 35 40 40 42 48 53
59 59 59 59 59 60 60 60 60 60 60 60 61 61 62 63 64 64 64 65 65 66 67 67 67 68 68 69 70 70 70 70 71 71 71 71 71 71 72 73 74 74 74 75 75 75 73 70 66 64 64 64 64 65 67 66 64 64 64 64 61 55 48 40 34 34 35 33 31 34 38 34 26 21 22 26 29 29 30 33 33 31 36 49 60
63 63 63 63 63 63 63 63 63 63 63 63 64 65 66 67 67 67 68 68 68 69 70 70 71 71 72 72 73 73 73 73 73 73 73 73 73 73 74 75 76 76 75 76 76 72 68 64 62 62 64 65 66 68 67 63 60 61 61 59 58 55 50 44 38 33 33 32 29 30 32 29 23 19 19 22 25 28 26 24 24 29 37 52 65
67 66 66 66 66 66 66 66 67 67 67 67 68 69 70 70 71 71 71 71 71 72 72 73 74 74 74 75 75 75 75 75 75 76 76 76 76 76 76 77 77 77 76 76 73 67 63 62 64 65 65 65 68 70 65 57 54 58 58 56 55 52 48 44 38 31 31 32 29 27 29 30 29 28 27 24 22 23 23 24 32 43 51 58 67
70 70 70 69 69 69 69 69 70 70 70 71 71 72 73 73 74 74 74 74 74 74 75 75 76 77 77 78 78 78 78 78 78 79 79 79 79 79 79 79 78 77 76 74 69 65 64 65 67 68 67 68 70 69 60 50 49 53 55 54 52 48 44 42 36 30 28 28 26 26 28 30 34 35 34 31 27 26 27 34 48 59 60 58 63
73 73 73 72 72 72 72 73 73 74 74 74 74 75 76 77 77 77 77 77 77 77 77 78 79 80 80 80 81 81 81 81 81 82 82 82 82 81 80 80 79 77 75 72 69 67 67 68 69 69 68 70 72 68 58 49 47 49 51 53 52 45 41 38 34 31 29 28 28 28 25 24 27 31 33 34 34 33 34 41 56 68 69 65 66
76 75 75 75 75 76 76 77 77 78 78 78 78 78 79 80 80 80 80 80 80 80 80 81 82 83 83 84 84 84 84 84 84 84 84 84 84 83 82 81 79 77 75 72 71 70 70 70 70 70 70 71 72 67 57 50 48 46 46 48 48 44 39 36 32 30 31 31 32 33 28 24 25 31 36 39 42 45 47 51 59 70 76 76 74
78 78 78 78 79 79 80 81 81 81 81 81 81 82 82 83 83 83 83 83 84 84 84 85 85 86 86 86 86 86 86 86 86 87 87 86 86 85 83 82 80 77 75 73 72 72 72 71 71 72 73 72 70 64 57 53 50 46 42 41 41 41 40 37 32 30 32 33 34 37 36 33 34 39 47 51 53 57 61 66 70 75 81 85 84
81 81 81 82 82 83 83 84 84 84 84 84 84 85 85 85 86 86 86 86 87 87 87 87 88 88 88 89 88 88 88 88 89 90 90 89 88 87 85 82 79 75 74 73 72 73 73 74 74 75 74 71 68 64 60 58 54 49 44 42 42 42 41 39 35 32 34 37 38 39 41 42 41 45 51 57 60 61 65 70 74 79 83 86 87
83 84 84 84 85 85 85 86 86 86 86 87 87 87 88 88 88 88 89 89 89 89 89 89 89 89 89 90 89 89 90 90 90 91 91 90 89 87 83 79 76 73 73 73 73 74 76 77 77 74 71 68 68 67 66 64 61 56 51 47 46 45 43 42 39 36 34 38 42 44 46 47 49 51 54 58 62 64 66 68 72 75 79 83 86
86 86 86 87 87 87 88 88 89 89 89 89 89 90 90 90 91 91 91 91 91 90 90 90 90 90 90 91 91 91 90 89 89 89 88 87 84 80 77 75 74 75 75 76 77 78 79 78 74 70 68 68 69 70 71 72 73 69 62 56 52 50 47 45 44 41 38 38 41 45 48 51 55 58 60 62 64 67 70 73 76 79 82 85 89
87 87 87 87 87 88 89 89 90 90 90 91 91 91 92 92 92 92 92 92 91 91 91 91 91 90 91 91 92 91 89 87 85 84 82 80 77 76 76 77 78 79 79 79 81 81 79 75 71 69 69 70 71 73 76 78 79 75 69 62 56 52 50 49 48 46 44 43 43 45 48 51 56 61 65 69 71 72 74 76 79 83 87 91 93
86 87 87 87 88 88 89 89 90 90 90 91 91 91 91 92 92 92 92 92 92 92 91 91 90 90 90 91 91 91 89 86 84 82 81 80 80 81 82 82 82 82 82 82 82 81 77 73 71 71 72 73 75 77 80 82 82 81 79 74 67 60 56 54 52 50 48 47 47 48 49 51 55 59 65 69 72 75 78 80 81 83 85 88 90
88 88 88 89 89 89 90 90 90 91 91 91 92 92 92 92 93 93 93 92 92 91 90 90 89 90 90 90 91 92 91 89 87 86 86 85 85 85 85 85 85 85 86 85 83 79 75 74 74 75 76 77 79 81 82 84 85 86 86 85 81 74 66 60 57 56 54 52 51 51 51 52 54 57 62 66 69 72 74 78 81 82 83 83 84
Wind_Direction
220 219 217 214 208 205 203 204 205 206 207 208 210 213 216 220 224 227 231 236 241 246 250 257 264 269 273 278 282 285 288 292 296 300 303 305 306 309 312 315 316 316 316 316 315 316 316 317 317 318 319 320 321 321 322 323 325 326 327 327 327 328 329 329 329 329 328 328 328 328 327 326 324 322 320 317 313 307 298 290 288 289 291 291 292
225 223 221 216 211 208 206 207 210 211 212 213 214 218 221 225 229 233 238 244 249 252 256 260 266 271 275 279 282 285 288 292 295 299 301 302 304 307 310 313 314 315 314 314 313 313 313 314 315 315 316 317 318 319 320 321 322 323 323 324 324 325 325 326 326 325 324 324 323 323 322 320 318 316 314 311 308 305 300 293 289 289 292 293 290
228 226 222 218 214 211 210 211 213 215 217 218 220 223 227 231 235 240 245 251 255 259 263 266 270 274 278 281 283 286 289 292 295 298 299 301 303 306 310 312 313 312 312 311 311 311 311 312 312 313 314 315 316 317 317 318 319 320 320 321 322 323 323 323 323 322 321 320 319 319 318 315 312 310 308 305 302 300 297 294 292 291 293 295 292
226 224 222 219 216 215 214 215 217 219 222 224 227 230 234 239 243 248 252 257 261 265 268 271 274 277 279 281 284 286 289 292 295 297 299 300 303 306 308 309 310 309 308 308 308 309 309 310 311 312 313 314 315 315 316 316 317 318 319 320 320 321 321 320 320 319 318 318 317 315 314 311 308 305 302 299 297 296 295 293 291 292 293 294 293
225 223 221 219 219 219 219 220 221 224 227 231 235 239 243 246 250 255 259 263 266 269 272 275 278 280 281 282 284 287 289 292 294 296 298 300 302 304 305 306 306 306 305 305 306 307 308 309 310 311 312 313 314 314 315 316 316 317 318 318 319 319 319 318 318 317 317 316 315 313 310 307 303 300 297 294 292 291 292 291 290 290 291 292 292
225 222 220 220 220 221 222 223 225 228 231 236 240 243 247 250 254 258 261 264 266 269 272 275 278 280 282 283 284 287 289 291 293 294 296 298 299 300 302 303 304 304 304 304 305 306 307 309 310 311 311 312 313 314 315 315 316 316 316 317 317 317 318 317 317 317 316 316 314 311 307 303 298 295 292 289 288 286 288 289 289 289 289 290 292
224 222 221 221 221 222 224 226 228 230 234 237 240 244 246 250 254 257 259 262 264 267 270 273 276 278 280 282 284 285 287 289 290 292 293 295 296 298 300 302 302 303 303 304 305 307 308 309 309 310 311 312 313 313 314 314 314 314 315 315 316 317 318 318 318 317 316 315 313 310 307 302 297 292 287 285 284 283 284 286 285 286 287 288 289
222 222 222 222 222 224 226 227 230 232 234 237 240 242 245 248 251 253 256 260 263 266 268 271 274 275 277 279 281 282 283 285 287 289 291 292 295 297 300 301 301 302 303 305 306 307 308 308 308 309 310 311 312 312 312 312 312 313 314 315 317 318 318 318 318 317 315 314 313 310 306 302 297 291 285 281 279 279 281 283 282 282 284 286 286
219 221 222 222 222 224 225 227 229 232 234 237 239 241 243 245 247 250 254 258 262 264 266 268 270 272 274 275 276 278 281 283 285 287 289 292 294 297 299 300 301 302 304 306 307 307 307 307 308 309 310 310 310 310 310 311 312 313 314 316 318 319 318 317 316 315 313 313 313 310 305 300 296 291 284 279 276 276 278 279 279 280 281 282 282
217 219 221 222 222 223 225 226 229 231 234 236 238 239 241 244 248 251 254 257 260 263 265 267 268 270 272 274 275 278 280 283 284 287 289 292 295 298 299 300 301 302 304 305 305 306 306 307 308 309 309 309 309 309 309 311 312 314 316 318 318 317 317 316 315 313 313 313 312 309 304 299 296 291 285 279 275 274 276 277 277 278 280 283 285
217 218 220 222 223 224 225 227 230 232 235 237 239 241 244 247 251 254 256 259 262 265 267 269 271 272 273 275 277 278 280 282 284 287 291 294 296 298 298 299 300 302 303 303 304 305 306 307 307 308 308 307 307 308 310 312 314 316 318 318 318 317 316 316 315 313 313 314 311 308 304 299 295 292 288 284 278 274 274 275 277 279 280 284 288
220 219 221 223 225 226 228 230 232 235 237 240 242 244 247 250 253 256 259 262 264 266 269 272 273 273 273 275 277 279 281 283 286 290 292 294 296 297 298 299 300 301 302 303 304 305 306 306 306 306 306 306 307 309 311 313 315 316 318 318 318 318 317 317 316 313 314 314 311 307 303 299 295 293 292 288 281 276 277 278 279 281 282 284 287
224 223 223 225 227 229 231 233 235 238 240 243 245 247 249 252 255 258 261 264 266 267 270 272 273 274 275 276 278 280 282 285 288 291 292 293 295 296 298 299 300 301 302 303 304 305 305 305 305 305 306 306 308 310 312 313 314 315 316 317 318 316 315 316 315 314 316 316 310 305 301 296 294 297 299 295 286 280 282 282 280 280 283 284 286
227 227 228 228 230 232 234 236 238 241 244 246 248 250 252 255 257 259 262 265 267 269 271 272 273 275 276 278 279 282 284 287 289 290 291 293 295 297 298 299 300 301 302 303 304 304 303 304 304 305 306 307 308 310 312 313 314 315 315 316 316 314 312 314 316 316 318 316 308 303 298 293 294 301 306 303 296 289 286 284 280 279 280 281 284
230 231 231 232 233 234 236 238 241 244 246 249 251 253 255 257 259 261 264 266 267 269 270 271 273 275 277 279 281 284 286 287 288 290 292 294 296 297 298 299 300 300 301 302 302 302 302 304 305 306 306 307 309 310 312 314 314 315 315 315 315 313 311 313 316 318 319 314 306 300 293 289 292 299 301 300 297 293 290 286 281 277 276 277 281
235 234 235 235 236 237 239 241 242 245 247 250 252 254 256 259 262 263 265 265 266 268 269 271 273 275 278 280 282 284 285 287 289 291 293 295 296 297 298 299 299 299 300 301 302 301 302 304 304 305 306 308 310 312 313 314 314 314 314 314 314 312 310 312 316 318 316 310 303 297 289 284 285 287 292 296 296 294 291 286 281 277 275 276 279
237 237 237 238 238 239 241 242 244 246 248 250 253 255 258 261 263 264 265 265 266 268 270 273 275 277 279 281 282 284 286 288 290 292 293 295 296 297 297 298 298 299 300 301 302 302 303 305 306 306 307 308 309 310 311 313 314 314 314 314 312 310 309 312 316 316 314 309 302 293 282 277 279 284 291 299 302 300 295 289 282 278 277 278 281
238 239 240 240 241 242 243 244 245 247 249 251 254 257 259 261 262 263 265 266 268 270 273 274 276 277 279 281 283 285 287 289 291 292 293 295 296 296 296 296 296 297 299 301 302 303 304 306 307 307 307 308 309 309 309 311 312 312 313 313 311 309 308 310 313 313 311 308 300 288 277 273 276 283 291 300 307 306 301 293 286 284 283 284 286
241 241 242 242 243 244 245 245 246 248 249 252 254 256 257 259 261 263 265 268 270 272 273 275 276 278 280 282 284 286 288 290 291 292 293 294 295 296 296 295 296 299 301 302 303 303 304 306 307 308 309 311 312 312 313 313 313 313 313 311 311 309 308 309 309 307 305 303 294 283 274 270 272 280 289 297 302 306 305 298 290 288 290 291 293
242 243 243 244 245 246 246 247 248 249 250 251 252 254 256 258 261 263 265 268 270 272 274 276 278 280 282 284 285 287 288 289 290 292 293 295 296 297 297 299 301 305 306 306 306 307 308 309 311 312 314 315 315 316 316 316 315 315 313 311 310 309 308 308 307 303 300 296 287 280 274 270 270 273 281 288 297 308 313 308 294 287 290 295 301
244 245 245 245 246 247 249 250 251 251 252 253 254 256 258 260 262 264 267 269 272 274 276 278 279 281 283 284 285 286 288 289 290 292 295 296 297 297 298 300 304 306 307 308 309 311 313 315 316 317 317 317 316 316 316 315 315 315 313 311 309 308 306 306 305 302 297 292 285 279 276 273 272 270 275 287 300 310 315 311 301 293 294 298 304
246 247 247 247 247 249 250 252 254 255 256 257 258 260 261 263 265 268 270 272 274 276 278 279 280 281 282 283 284 285 286 289 292 294 296 296 296 296 298 301 304 307 309 311 313 315 316 318 318 318 318 317 315 314 314 313 313 312 311 310 308 305 303 302 301 298 294 290 286 282 278 277 276 272 275 288 301 307 309 307 304 302 302 304 307
247 247 248 249 250 250 252 253 255 257 258 260 262 263 265 267 269 271 273 274 275 276 277 278 279 279 281 282 284 286 288 292 294 295 294 294 295 298 301 303 307 310 312 313 314 315 316 316 316 315 315 314 313 313 312 311 310 309 308 308 306 304 301 300 298 295 290 285 284 285 282 279 278 275 277 287 296 299 301 302 305 307 308 309 309
247 248 249 251 252 252 254 255 257 259 261 262 264 266 267 269 270 271 272 273 273 274 274 275 276 278 281 283 285 288 291 293 294 293 293 296 299 301 304 307 309 312 313 313 313 313 313 312 312 311 311 311 311 311 310 309 309 308 308 307 305 304 302 300 298 295 290 283 281 283 283 281 278 276 279 286 290 293 296 300 305 311 313 315 314
247 248 250 251 253 254 255 257 259 261 262 264 265 266 268 268 268 269 269 269 270 271 272 274 276 278 280 281 283 286 289 291 292 294 296 300 302 304 306 308 309 311 312 311 311 310 309 309 309 309 309 309 309 309 309 308 308 308 307 306 305 304 302 300 298 296 293 285 278 278 281 281 278 275 278 283 287 290 293 295 299 306 311 316 319
247 248 250 251 253 254 255 257 258 259 261 262 263 264 264 264 264 265 265 266 268 269 271 273 274 275 277 279 281 285 288 290 292 295 298 300 302 304 306 307 308 309 309 308 308 307 307 307 307 307 308 308 308 308 307 307 306 306 305 305 304 303 302 299 296 293 291 287 279 274 276 278 278 276 278 283 285 288 294 300 302 301 301 303 307
246 247 248 249 251 252 253 254 255 255 256 257 258 258 259 260 262 263 264 265 267 268 269 271 272 274 277 280 284 287 289 290 292 295 297 299 301 303 304 305 305 305 306 306 306 305 306 306 307 307 306 306 306 305 304 303 303 303 303 303 303 303 302 300 296 292 289 286 279 273 271 274 277 279 281 285 288 291 297 303 302 296 293 295 298
243 245 245 246 247 248 249 249 250 251 252 253 254 255 257 258 260 261 262 264 265 266 269 271 274 277 280 283 286 288 289 291 293 295 297 299 300 301 302 302 303 303 303 304 305 305 306 306 305 305 305 304 304 303 302 302 302 302 302 302 302 303 303 301 297 292 289 284 278 271 268 268 271 273 275 280 284 285 288 290 288 285 286 291 293
240 243 245 245 246 247 248 249 250 251 251 251 252 253 254 256 258 260 262 264 265 268 270 273 276 279 281 283 285 287 289 291 293 295 297 298 299 300 300 301 301 302 303 304 305 306 306 305 305 305 305 305 305 304 303 303 303 302 302 301 302 303 304 302 297 291 288 286 279 269 264 263 262 261 263 270 273 272 274 277 277 277 280 283 285
239 241 242 244 245 246 248 249 251 251 251 251 251 253 255 258 261 264 266 267 269 271 273 275 278 279 281 283 285 287 290 291 293 295 295 296 297 298 299 299 300 302 303 305 306 306 306 306 307 307 307 307 306 307 309 309 307 305 303 303 304 305 304 303 299 291 288 288 281 270 263 260 257 255 257 262 265 265 266 268 267 269 271 273 276
237 239 241 242 244 245 247 248 249 250 251 252 254 256 259 261 264 266 268 269 271 273 275 277 279 280 283 285 286 287 289 290 291 292 293 294 295 296 297 298 300 301 303 304 305 306 307 308 308 309 308 307 307 311 316 316 314 311 308 306 306 306 305 302 296 291 290 290 282 272 266 260 258 257 254 252 251 255 260 263 262 263 264 266 269
236 237 240 242 243 244 245 247 249 251 253 256 258 259 261 263 265 267 269 271 273 275 276 278 280 282 284 285 286 286 287 289 290 290 291 293 294 295 296 298 300 301 303 304 306 307 309 309 309 309 308 306 306 311 315 316 316 314 312 308 306 306 306 302 294 289 291 289 281 275 270 264 261 260 257 251 248 249 255 259 261 263 265 267 269
236 238 240 242 244 245 246 248 250 253 256 258 260 262 264 266 268 270 271 273 275 276 278 280 281 283 283 284 284 285 286 287 288 289 291 292 293 295 297 298 300 301 303 304 306 308 309 309 309 309 307 304 305 307 311 313 314 313 312 309 306 305 306 304 296 290 289 285 279 277 275 269 263 259 257 255 253 250 252 257 260 263 266 267 268
239 240 242 245 247 248 249 251 253 255 258 261 263 265 267 269 271 272 274 275 276 277 279 280 281 281 282 283 283 284 285 286 287 289 291 292 294 296 297 298 300 301 303 305 307 308 309 309 309 308 307 305 304 306 308 310 311 311 311 309 305 303 305 303 296 290 287 283 279 279 278 274 268 261 257 258 256 252 255 260 261 262 266 268 266
244 245 247 248 250 251 252 254 256 258 260 263 265 268 269 271 272 273 274 275 276 277 278 279 280 281 282 283 283 284 285 286 288 290 292 293 295 296 298 299 301 302 303 305 306 307 308 308 308 308 307 305 304 306 308 310 310 310 310 308 304 302 304 302 295 287 285 282 281 282 281 277 273 266 258 258 259 258 258 260 261 263 268 269 265
249 250 251 252 253 255 256 257 259 260 262 264 266 268 269 270 272 273 274 275 276 277 278 279 280 281 282 282 283 284 286 287 289 291 292 294 295 297 298 299 301 302 303 305 306 306 306 307 308 307 306 305 305 306 308 310 310 310 309 308 304 301 302 302 293 282 280 282 283 284 283 281 279 274 264 261 265 264 260 257 256 260 266 267 266
250 252 253 255 256 258 258 259 260 261 263 264 266 267 269 270 271 272 273 274 275 277 278 279 280 281 282 283 284 285 287 288 290 291 292 294 295 297 298 299 300 302 303 304 305 305 306 307 307 307 306 306 306 307 309 311 311 310 309 308 305 301 301 301 291 279 278 282 282 281 280 280 281 280 274 269 269 266 258 250 247 251 261 268 272
252 253 254 256 257 258 258 259 261 262 263 264 266 267 268 269 270 271 273 274 275 277 278 279 280 281 282 283 284 286 287 288 290 291 292 294 295 297 298 299 300 301 302 303 305 306 306 307 307 307 306 306 306 307 310 311 311 310 308 308 306 303 302 300 289 277 276 279 277 274 276 278 279 278 274 268 262 256 246 239 239 248 261 271 278
251 252 254 255 257 258 259 261 262 263 264 265 266 268 269 270 271 272 274 275 276 278 279 280 281 282 283 284 285 286 287 288 290 291 292 294 295 296 297 298 299 300 302 303 305 306 306 306 306 306 306 306 306 308 311 313 312 310 309 308 307 305 303 300 289 274 269 271 273 274 275 273 268 267 266 259 249 242 235 232 238 253 266 269 271
251 253 254 256 258 259 261 262 263 264 266 267 268 269 270 271 273 274 275 276 277 279 280 281 282 282 283 284 285 286 288 289 290 291 292 294 294 295 296 297 299 300 302 303 305 305 305 305 306 306 306 307 307 309 312 314 314 313 311 309 308 306 304 301 293 275 264 265 267 268 269 262 246 245 260 258 248 245 246 247 256 265 266 262 261
255 256 257 258 260 261 262 264 265 266 268 269 270 271 272 273 274 275 276 277 278 279 280 281 282 282 283 284 286 287 288 289 290 291 292 293 294 294 295 297 299 300 302 303 304 303 304 305 307 307 307 307 308 311 313 315 316 316 313 311 310 308 304 300 293 276 263 263 262 258 259 253 241 243 254 257 251 250 255 262 264 261 258 256 256
257 258 259 261 262 263 265 266 268 268 269 270 271 272 273 274 275 276 277 278 278 279 280 281 282 282 284 285 286 287 288 289 290 291 291 292 293 294 295 297 298 300 301 302 301 302 303 306 307 308 307 307 309 313 315 315 316 317 314 311 311 310 304 299 290 271 259 261 260 254 251 245 239 240 247 250 247 243 244 251 253 250 246 246 249
258 259 261 263 264 266 267 268 269 269 270 271 271 272 273 274 275 276 277 277 278 279 280 281 282 283 284 285 286 287 288 289 289 290 291 292 293 294 295 296 297 299 299 300 300 301 303 305 306 306 306 307 309 312 312 313 315 316 313 311 312 310 305 298 286 267 255 254 253 249 243 238 239 244 248 248 247 243 239 242 244 242 239 239 242
259 260 262 264 265 266 267 268 268 269 270 271 271 272 273 274 275 276 277 277 278 279 280 281 282 283 284 285 286 287 288 288 289 290 290 291 292 294 295 296 296 297 298 299 299 300 302 304 304 304 304 305 307 309 311 313 315 315 313 312 313 311 306 299 287 266 254 250 249 245 235 227 231 238 239 239 240 239 238 239 239 239 239 240 241
259 260 261 263 264 265 266 267 268 268 269 270 271 272 273 274 274 276 276 277 278 279 280 281 282 283 284 284 285 286 287 288 289 289 290 291 292 293 293 294 295 296 297 298 299 300 301 302 302 302 303 304 306 308 311 312 314 313 311 310 311 309 305 300 290 269 252 244 243 242 236 229 225 224 223 224 226 229 231 233 235 236 238 240 242
257 258 259 260 262 263 264 265 266 267 268 269 270 271 272 273 274 275 276 276 277 278 279 280 281 282 283 284 285 286 286 287 288 288 289 290 291 291 292 293 294 295 296 297 298 298 299 299 300 301 302 304 306 308 310 311 312 312 310 307 308 309 306 300 293 278 256 242 237 236 236 236 234 229 225 224 226 227 227 228 229 232 234 237 240
256 257 258 259 261 262 263 264 266 267 268 268 269 270 271 272 272 273 274 275 276 277 279 280 281 282 283 284 284 285 286 286 287 287 288 289 290 290 291 292 292 293 294 295 296 296 297 298 300 301 302 304 304 306 307 309 310 309 307 304 303 305 303 298 293 285 268 250 240 236 234 234 235 235 234 233 234 235 235 234 233 234 236 239 242
257 258 259 261 262 263 264 265 266 266 267 268 269 269 270 271 272 273 274 275 276 277 278 279 280 281 282 283 284 285 285 286 286 287 288 288 289 290 290 291 291 293 294 294 296 297 298 299 300 301 301 302 302 302 304 306 308 308 308 307 305 304 302 298 294 289 280 266 255 247 242 238 235 235 235 237 238 240 241 241 241 241 242 244 246
258 259 260 261 262 263 264 265 265 266 267 268 268 269 270 271 272 273 274 274 275 277 278 279 280 281 282 283 284 285 285 286 287 287 287 288 288 289 290 291 292 293 294 295 297 299 299 299 299 299 300 300 301 300 301 304 306 307 308 308 307 305 302 300 297 293 286 279 271 264 257 251 246 241 238 236 237 239 240 241 242 243 244 246 248
258 259 260 261 262 263 264 265 265 266 267 267 268 269 270 271 272 273 274 275 276 276 277 278 280 281 282 283 284 284 285 286 286 287 287 288 289 291 292 293 293 294 295 297 298 299 298 298 297 297 298 298 299 299 300 302 304 306 307 307 308 307 304 301 299 296 292 286 280 274 269 264 260 254 249 245 243 242 242 243 245 246 247 249 250
258 259 260 261 262 263 264 265 266 267 267 268 268 269 270 271 272 273 274 275 276 276 277 279 280 281 281 282 282 283 284 285 285 286 287 289 291 292 293 294 294 295 296 297 298 298 297 296 295 295 296 297 297 298 299 301 302 304 305 307 309 310 308 306 303 301 298 294 288 282 278 275 272 267 262 259 256 254 252 251 251 252 255 257 257
Height
10981 10982 10983 10986 10987 10988 10990 10992 10993 10995 10997 10999 11000 11002 11003 11004 11005 11007 11008 11009 11010 11010 11011 11011 11011 11011 11011 11011 11010 11010 11010 11010 11009 11009 11009 11008 11007 11006 11005 11004 11002 11001 11000 10999 10998 10996 10995 10993 10992 10990 10989 10988 10986 10984 10983 10982 10980 10979 10977 10975 10973 10972 10970 10969 10967 10964 10962 10960 10958 10956 10954 10951 10949 10947 10945 10943 10941 10940 10938 10936 10935 10934 10933 10932 10930
10979 10981 10982 10984 10985 10987 10988 10989 10991 10992 10994 10996 10998 10999 11001 11002 11003 11005 11006 11007 11007 11008 11009 11009 11009 11009 11008 11008 11008 11007 11007 11007 11007 11007 11006 11005 11004 11004 11003 11002 11001 10999 10998 10996 10995 10994 10992 10991 10990 10988 10987 10986 10984 10982 10981 10979 10978 10976 10975 10973 10971 10969 10967 10965 10964 10961 10959 10956 10954 10952 10950 10948 10945 10943 10941 10939 10937 10936 10934 10932 10931 10931 10930 10929 10927
10977 10980 10981 10982 10983 10984 10985 10986 10987 10989 10991 10993 10995 10997 10999 11000 11001 11003 11004 11004 11005 11006 11006 11006 11007 11007 11006 11006 11005 11005 11005 11004 11004 11004 11003 11002 11001 11001 11000 11000 10998 10997 10995 10993 10992 10991 10990 10988 10987 10986 10984 10983 10981 10980 10978 10977 10975 10973 10971 10970 10968 10966 10963 10961 10959 10957 10955 10952 10950 10947 10945 10943 10940 10938 10936 10934 10933 10932 10930 10929 10928 10927 10926 10925 10924
10975 10977 10978 10979 10980 10981 10982 10983 10984 10986 10988 10991 10993 10995 10996 10998 10999 11001 11001 11002 11003 11003 11004 11004 11004 11004 11004 11003 11003 11002 11002 11002 11001 11001 11000 10999 10998 10997 10997 10996 10996 10994 10992 10991 10989 10987 10986 10985 10984 10982 10981 10980 10978 10977 10975 10973 10972 10970 10968 10966 10964 10962 10960 10957 10954 10951 10948 10946 10944 10942 10940 10938 10935 10933 10932 10930 10928 10927 10926 10925 10924 10924 10923 10922 10921
10971 10973 10974 10975 10976 10978 10979 10981 10982 10985 10987 10989 10991 10992 10994 10995 10997 10998 10999 10999 11000 11001 11001 11001 11001 11001 11001 11001 11000 11000 10999 10999 10999 10998 10997 10996 10995 10994 10993 10993 10992 10991 10989 10988 10986 10984 10983 10981 10980 10979 10977 10976 10975 10973 10971 10969 10967 10965 10964 10962 10959 10957 10954 10952 10949 10946 10942 10940 10938 10936 10935 10933 10931 10929 10928 10926 10925 10923 10922 10922 10921 10920 10920 10919 10917
10967 10969 10970 10971 10972 10974 10976 10978 10980 10983 10985 10986 10988 10989 10990 10992 10994 10995 10996 10996 10997 10998 10998 10999 10999 10999 10998 10998 10998 10997 10997 10996 10996 10995 10994 10993 10992 10991 10990 10989 10988 10987 10986 10984 10983 10982 10980 10978 10976 10975 10973 10972 10971 10969 10967 10965 10962 10960 10958 10956 10954 10952 10949 10945 10943 10940 10937 10935 10933 10930 10928 10928 10927 10925 10924 10923 10922 10920 10919 10918 10918 10917 10917 10916 10914
10962 10965 10966 10967 10969 10970 10972 10975 10978 10980 10981 10983 10984 10985 10987 10989 10991 10992 10993 10993 10994 10995 10996 10996 10996 10997 10996 10995 10995 10995 10994 10993 10992 10992 10991 10990 10989 10987 10986 10985 10984 10983 10982 10980 10979 10978 10976 10975 10973 10971 10970 10968 10967 10965 10963 10960 10958 10955 10953 10951 10948 10946 10943 10939 10936 10934 10932 10930 10928 10926 10923 10922 10922 10921 10920 10919 10918 10917 10916 10915 10915 10914 10913 10913 10912
10957 10960 10962 10963 10965 10967 10970 10972 10974 10976 10978 10979 10980 10982 10984 10986 10987 10988 10989 10989 10990 10991 10992 10993 10993 10993 10993 10993 10992 10991 10991 10990 10989 10988 10987 10986 10985 10984 10983 10982 10980 10979 10978 10977 10975 10974 10972 10971 10969 10968 10966 10964 10963 10960 10958 10956 10953 10951 10949 10946 10943 10940 10938 10935 10932 10929 10927 10925 10924 10922 10919 10918 10917 10916 10915 10915 10914 10913 10912 10912 10912 10911 10911 10910 10910
10952 10955 10957 10959 10962 10965 10967 10969 10971 10973 10974 10975 10977 10979 10980 10982 10983 10984 10985 10986 10987 10988 10989 10990 10990 10990 10990 10989 10989 10988 10987 10987 10986 10985 10984 10983 10982 10981 10980 10979 10977 10975 10974 10973 10971 10970 10968 10966 10964 10963 10961 10959 10957 10955 10953 10951 10949 10947 10945 10942 10939 10936 10933 10930 10928 10925 10922 10920 10919 10917 10915 10914 10913 10912 10911 10910 10909 10909 10908 10908 10908 10908 10907 10907 10906
10947 10950 10953 10955 10959 10961 10963 10965 10967 10969 10970 10972 10974 10975 10977 10978 10979 10980 10982 10983 10984 10984 10985 10986 10986 10986 10986 10985 10985 10985 10984 10983 10983 10982 10981 10980 10979 10978 10977 10975 10973 10972 10970 10969 10967 10966 10964 10962 10960 10958 10956 10953 10951 10949 10947 10946 10944 10942 10941 10938 10936 10932 10929 10926 10923 10921 10919 10917 10914 10913 10911 10910 10909 10908 10907 10906 10905 10905 10905 10904 10904 10903 10902 10902 10901
10943 10946 10949 10952 10955 10958 10960 10962 10964 10965 10967 10968 10970 10972 10973 10974 10975 10976 10978 10980 10981 10981 10981 10982 10982 10982 10982 10981 10981 10981 10980 10980 10979 10979 10978 10977 10976 10974 10972 10971 10970 10968 10967 10965 10963 10962 10960 10958 10955 10953 10950 10947 10945 10944 10943 10941 10939 10937 10936 10934 10932 10929 10926 10923 10920 10917 10915 10914 10911 10909 10908 10906 10905 10904 10903 10902 10902 10901 10901 10901 10900 10899 10898 10897 10896
10941 10944 10946 10949 10952 10954 10956 10959 10960 10962 10963 10965 10967 10969 10970 10971 10972 10973 10975 10977 10977 10977 10978 10978 10977 10977 10977 10977 10976 10976 10976 10976 10976 10976 10975 10974 10972 10970 10968 10967 10966 10964 10963 10961 10959 10958 10956 10953 10951 10948 10945 10941 10939 10938 10938 10937 10936 10933 10931 10929 10926 10924 10922 10920 10917 10913 10912 10911 10908 10906 10905 10904 10902 10901 10900 10899 10899 10898 10898 10897 10897 10896 10895 10894 10892
10939 10941 10944 10946 10948 10951 10953 10956 10957 10959 10960 10962 10964 10966 10966 10968 10969 10971 10972 10973 10973 10973 10974 10973 10972 10972 10972 10973 10972 10972 10972 10972 10972 10972 10971 10970 10968 10966 10964 10963 10961 10960 10958 10957 10955 10953 10951 10948 10946 10944 10941 10937 10935 10933 10933 10932 10931 10930 10927 10924 10922 10919 10917 10916 10914 10910 10908 10907 10905 10902 10901 10901 10899 10898 10897 10897 10896 10895 10895 10894 10894 10892 10891 10890 10888
10936 10938 10941 10943 10945 10948 10950 10953 10955 10956 10958 10959 10961 10962 10963 10965 10967 10968 10969 10969 10969 10969 10969 10969 10968 10968 10968 10968 10968 10968 10968 10968 10968 10967 10967 10966 10965 10962 10960 10958 10956 10955 10954 10952 10951 10948 10946 10943 10941 10939 10936 10933 10931 10930 10928 10926 10925 10924 10922 10920 10918 10915 10913 10912 10911 10908 10905 10903 10900 10899 10898 10897 10896 10895 10894 10894 10893 10892 10891 10891 10890 10889 10888 10886 10884
10933 10936 10938 10940 10942 10945 10947 10950 10952 10954 10955 10957 10958 10959 10960 10962 10963 10965 10965 10965 10965 10965 10965 10964 10964 10964 10964 10963 10963 10964 10964 10963 10963 10963 10963 10962 10961 10959 10957 10954 10952 10950 10949 10948 10946 10943 10941 10939 10937 10935 10932 10930 10928 10927 10925 10923 10920 10919 10917 10915 10914 10911 10908 10908 10907 10905 10902 10899 10897 10896 10895 10893 10893 10892 10891 10891 10890 10889 10888 10887 10886 10885 10884 10882 10881
10930 10933 10935 10937 10940 10942 10944 10946 10949 10950 10952 10953 10954 10956 10957 10958 10959 10960 10961 10961 10961 10961 10961 10961 10961 10960 10960 10959 10959 10959 10959 10959 10958 10958 10958 10958 10957 10955 10953 10950 10947 10945 10944 10943 10941 10938 10936 10935 10933 10932 10929 10927 10925 10923 10921 10919 10917 10915 10913 10912 10909 10906 10903 10903 10903 10901 10898 10896 10894 10894 10893 10891 10889 10889 10888 10888 10887 10886 10885 10884 10882 10881 10880 10878 10877
10927 10930 10932 10934 10936 10938 10941 10943 10945 10946 10948 10948 10950 10952 10953 10954 10955 10955 10956 10956 10956 10957 10957 10957 10956 10956 10956 10955 10955 10955 10955 10954 10954 10954 10954 10953 10952 10950 10949 10946 10943 10940 10939 10938 10936 10933 10932 10931 10930 10928 10925 10923 10922 10921 10919 10917 10914 10912 10910 10908 10906 10903 10899 10899 10899 10897 10895 10893 10891 10891 10890 10889 10887 10886 10885 10885 10885 10884 10883 10881 10879 10877 10875 10874 10872
10924 10926 10928 10930 10932 10934 10937 10939 10941 10942 10943 10944 10946 10948 10949 10950 10950 10950 10951 10951 10952 10952 10952 10952 10952 10951 10951 10951 10950 10950 10950 10950 10949 10949 10948 10948 10947 10946 10945 10942 10940 10938 10936 10935 10932 10930 10928 10927 10925 10924 10921 10919 10918 10916 10915 10914 10912 10909 10907 10904 10902 10899 10896 10896 10896 10894 10892 10890 10888 10887 10887 10886 10884 10883 10882 10882 10881 10881 10880 10879 10877 10875 10873 10870 10868
10921 10923 10925 10927 10928 10930 10932 10934 10936 10938 10939 10941 10943 10944 10944 10945 10946 10946 10946 10947 10947 10948 10947 10947 10947 10947 10946 10946 10946 10945 10945 10944 10944 10943 10943 10943 10942 10941 10939 10937 10936 10935 10934 10932 10929 10927 10925 10923 10921 10919 10917 10914 10912 10910 10909 10908 10907 10905 10903 10900 10898 10895 10892 10892 10892 10891 10889 10887 10885 10884 10883 10881 10880 10879 10878 10877 10877 10876 10876 10875 10874 10872 10870 10867 10865
10917 10919 10921 10922 10924 10926 10928 10930 10932 10934 10936 10937 10938 10939 10940 10940 10941 10942 10942 10942 10943 10943 10943 10942 10942 10942 10941 10941 10940 10940 10939 10939 10939 10939 10938 10938 10937 10935 10933 10931 10930 10930 10928 10926 10924 10922 10921 10920 10918 10916 10914 10911 10908 10906 10904 10902 10901 10899 10897 10895 10893 10890 10888 10887 10887 10886 10886 10884 10882 10880 10878 10877 10876 10875 10873 10872 10870 10869 10869 10869 10869 10868 10865 10863 10861
10913 10915 10916 10918 10919 10921 10923 10925 10927 10929 10930 10932 10933 10934 10935 10936 10936 10937 10937 10938 10938 10938 10937 10937 10936 10936 10936 10936 10935 10935 10934 10934 10934 10934 10934 10933 10932 10930 10928 10927 10926 10925 10923 10921 10919 10917 10916 10915 10913 10912 10910 10908 10905 10903 10901 10898 10896 10895 10892 10890 10888 10885 10884 10883 10882 10880 10880 10879 10878 10877 10874 10872 10871 10870 10869 10867 10865 10863 10862 10862 10862 10862 10861 10859 10856
10907 10909 10911 10913 10915 10917 10919 10920 10922 10923 10925 10926 10928 10929 10930 10930 10931 10932 10932 10932 10932 10932 10931 10931 10930 10930 10930 10930 10930 10930 10930 10930 10930 10930 10929 10928 10926 10925 10924 10924 10923 10922 10920 10917 10914 10912 10911 10909 10907 10906 10904 10903 10900 10898 10896 10894 10892 10890 10887 10885 10883 10881 10879 10878 10877 10875 10874 10874 10873 10872 10870 10868 10867 10866 10864 10863 10861 10860 10859 10857 10857 10857 10856 10854 10851
10901 10903 10905 10907 10910 10912 10914 10915 10917 10918 10920 10921 10922 10924 10924 10925 10925 10926 10926 10926 10926 10926 10925 10925 10924 10924 10924 10924 10925 10925 10926 10926 10926 10925 10923 10922 10921 10921 10920 10919 10919 10918 10916 10913 10910 10908 10906 10904 10902 10900 10898 10897 10895 10892 10890 10888 10886 10884 10881 10879 10877 10875 10873 10872 10870 10870 10869 10868 10867 10865 10864 10863 10862 10861 10860 10859 10858 10858 10857 10855 10853 10852 10851 10850 10848
10895 10897 10899 10901 10904 10907 10909 10910 10911 10913 10914 10916 10917 10918 10918 10919 10919 10919 10919 10919 10920 10920 10920 10919 10919 10919 10919 10919 10920 10920 10921 10922 10920 10918 10917 10917 10917 10916 10915 10914 10914 10913 10912 10909 10907 10905 10902 10900 10898 10896 10893 10892 10890 10887 10885 10881 10879 10876 10874 10871 10869 10868 10867 10866 10864 10863 10864 10863 10861 10859 10857 10856 10856 10856 10856 10854 10853 10854 10854 10852 10851 10849 10847 10846 10844
10888 10891 10893 10895 10898 10900 10902 10904 10906 10907 10908 10910 10911 10911 10912 10913 10912 10913 10913 10913 10914 10914 10915 10915 10915 10915 10915 10915 10916 10916 10917 10917 10915 10913 10912 10912 10911 10910 10909 10909 10908 10907 10907 10905 10903 10901 10898 10895 10893 10891 10888 10886 10883 10881 10879 10875 10872 10869 10866 10863 10861 10861 10860 10859 10858 10858 10857 10856 10855 10853 10851 10850 10850 10851 10851 10850 10849 10848 10848 10848 10848 10847 10844 10841 10839
10883 10885 10887 10889 10892 10894 10896 10898 10900 10901 10903 10904 10905 10906 10906 10906 10906 10907 10907 10908 10909 10910 10910 10910 10910 10911 10911 10911 10911 10913 10913 10913 10911 10909 10908 10907 10906 10905 10904 10903 10902 10902 10901 10900 10898 10896 10893 10890 10888 10886 10883 10880 10877 10875 10872 10869 10865 10862 10858 10855 10853 10852 10852 10852 10852 10851 10849 10848 10846 10845 10845 10844 10844 10846 10846 10845 10844 10843 10842 10843 10844 10842 10839 10836 10834
10877 10880 10882 10884 10886 10888 10890 10892 10894 10896 10897 10898 10899 10899 10899 10900 10901 10902 10902 10903 10904 10905 10905 10906 10906 10906 10906 10906 10907 10907 10907 10907 10907 10905 10904 10903 10901 10900 10899 10898 10897 10896 10895 10895 10893 10891 10888 10885 10882 10879 10877 10874 10870 10867 10865 10862 10858 10855 10851 10847 10844 10843 10842 10842 10842 10841 10840 10838 10837 10837 10837 10837 10838 10840 10841 10840 10840 10839 10839 10840 10840 10838 10833 10829 10828
10872 10875 10877 10879 10881 10883 10885 10886 10888 10891 10892 10892 10892 10892 10894 10895 10896 10897 10898 10899 10899 10900 10901 10901 10900 10900 10900 10901 10901 10901 10901 10901 10901 10900 10899 10898 10897 10895 10894 10893 10891 10890 10890 10889 10887 10885 10882 10880 10876 10873 10870 10868 10865 10860 10856 10853 10851 10848 10844 10840 10836 10834 10833 10831 10831 10831 10829 10828 10827 10828 10828 10829 10832 10834 10835 10836 10837 10837 10836 10837 10837 10834 10830 10825 10821
10868 10870 10872 10874 10876 10878 10880 10882 10884 10885 10886 10885 10886 10887 10889 10891 10891 10892 10893 10894 10894 10895 10895 10895 10895 10895 10895 10896 10896 10896 10895 10895 10895 10894 10894 10893 10891 10890 10888 10887 10886 10884 10884 10883 10881 10878 10875 10873 10870 10866 10864 10861 10858 10853 10849 10845 10842 10839 10836 10832 10829 10827 10824 10822 10821 10820 10818 10818 10819 10819 10819 10819 10822 10825 10826 10829 10830 10829 10828 10830 10829 10827 10824 10821 10817
10864 10866 10867 10869 10871 10873 10875 10877 10879 10879 10879 10880 10881 10883 10885 10886 10886 10887 10888 10888 10889 10889 10890 10890 10889 10889 10889 10890 10890 10889 10889 10888 10888 10888 10887 10887 10886 10885 10883 10882 10880 10878 10877 10876 10874 10872 10868 10865 10862 10859 10856 10853 10850 10846 10842 10838 10835 10832 10829 10825 10822 10819 10816 10813 10810 10809 10809 10810 10810 10809 10809 10809 10811 10811 10812 10814 10816 10814 10814 10816 10818 10817 10816 10813 10810
10859 10861 10862 10864 10866 10868 10871 10872 10873 10873 10874 10875 10877 10879 10880 10881 10881 10882 10882 10882 10883 10883 10883 10883 10883 10883 10883 10883 10883 10882 10882 10882 10882 10881 10881 10881 10880 10879 10878 10876 10874 10873 10871 10868 10866 10864 10862 10858 10854 10850 10847 10845 10841 10838 10835 10831 10828 10825 10822 10819 10815 10811 10808 10806 10802 10800 10801 10802 10800 10799 10800 10800 10801 10800 10799 10800 10800 10800 10801 10803 10804 10806 10806 10804 10801
10854 10856 10858 10859 10861 10864 10866 10867 10867 10868 10869 10870 10871 10873 10874 10874 10875 10875 10876 10876 10877 10877 10877 10877 10877 10877 10876 10876 10876 10875 10875 10875 10875 10875 10875 10875 10874 10873 10872 10870 10868 10866 10863 10861 10859 10856 10854 10851 10846 10843 10840 10837 10834 10831 10828 10825 10822 10818 10815 10812 10808 10803 10799 10797 10795 10794 10794 10793 10791 10790 10791 10791 10791 10791 10791 10791 10790 10790 10791 10792 10793 10795 10798 10797 10794
10848 10851 10853 10855 10856 10859 10860 10861 10862 10863 10863 10864 10865 10867 10867 10868 10869 10869 10869 10870 10870 10870 10870 10870 10870 10870 10870 10869 10869 10869 10868 10868 10868 10868 10868 10868 10867 10866 10865 10863 10860 10858 10856 10853 10851 10849 10846 10843 10839 10836 10833 10830 10827 10825 10821 10817 10814 10811 10806 10803 10801 10797 10792 10788 10786 10787 10786 10784 10782 10781 10781 10781 10781 10781 10781 10783 10783 10782 10782 10784 10786 10789 10791 10791 10789
10843 10845 10848 10849 10851 10853 10854 10856 10857 10857 10858 10858 10859 10860 10861 10861 10862 10862 10862 10862 10863 10863 10863 10863 10863 10863 10862 10862 10862 10861 10861 10861 10861 10860 10860 10860 10859 10858 10857 10854 10852 10850 10848 10846 10843 10841 10838 10835 10831 10828 10825 10823 10820 10818 10814 10809 10805 10801 10797 10793 10790 10788 10786 10782 10780 10779 10778 10775 10774 10773 10772 10772 10772 10772 10772 10772 10773 10773 10775 10777 10781 10784 10785 10785 10783
10837 10839 10840 10842 10844 10846 10848 10850 10851 10852 10852 10853 10853 10854 10854 10854 10855 10855 10855 10855 10855 10856 10856 10855 10855 10856 10855 10854 10854 10853 10853 10853 10852 10852 10851 10851 10850 10849 10847 10845 10843 10841 10839 10837 10835 10832 10830 10827 10824 10820 10817 10815 10812 10809 10806 10802 10796 10791 10787 10783 10781 10780 10778 10776 10774 10772 10769 10767 10766 10765 10764 10764 10764 10765 10765 10764 10764 10767 10769 10772 10776 10778 10779 10778 10776
10829 10831 10833 10835 10837 10839 10842 10843 10844 10845 10846 10846 10846 10846 10846 10847 10847 10848 10848 10848 10848 10848 10847 10847 10848 10848 10847 10846 10846 10845 10845 10845 10844 10843 10843 10842 10841 10840 10838 10836 10834 10832 10831 10829 10827 10824 10822 10819 10816 10813 10810 10807 10804 10801 10798 10793 10787 10782 10777 10773 10772 10771 10771 10769 10767 10764 10762 10760 10759 10758 10758 10756 10755 10757 10758 10758 10759 10760 10762 10766 10771 10773 10772 10770 10770
10823 10825 10827 10829 10831 10833 10834 10835 10836 10838 10839 10839 10839 10839 10839 10839 10840 10841 10841 10840 10840 10840 10839 10839 10840 10840 10839 10838 10837 10837 10837 10836 10835 10835 10834 10833 10832 10831 10829 10827 10825 10823 10822 10821 10819 10816 10813 10810 10808 10805 10802 10799 10796 10793 10791 10786 10779 10773 10767 10763 10762 10763 10763 10762 10760 10757 10756 10756 10754 10752 10751 10750 10749 10749 10750 10750 10752 10754 10755 10758 10763 10766 10766 10766 10766
10817 10819 10820 10822 10824 10824 10825 10826 10828 10830 10832 10832 10832 10832 10832 10832 10832 10832 10832 10833 10833 10832 10831 10831 10831 10831 10831 10830 10829 10828 10828 10827 10826 10825 10825 10824 10824 10822 10821 10819 10817 10815 10814 10812 10810 10808 10805 10802 10799 10796 10794 10791 10788 10786 10783 10779 10772 10766 10761 10756 10753 10753 10755 10756 10754 10751 10751 10751 10749 10747 10746 10745 10744 10744 10744 10745 10747 10748 10750 10752 10756 10760 10762 10763 10760
10810 10811 10812 10814 10815 10816 10818 10819 10820 10822 10824 10825 10825 10824 10824 10823 10824 10824 10824 10824 10824 10824 10822 10822 10822 10822 10821 10820 10820 10819 10819 10818 10817 10816 10816 10816 10815 10814 10812 10810 10809 10808 10806 10804 10802 10800 10797 10794 10792 10789 10786 10784 10781 10779 10776 10771 10766 10761 10756 10751 10747 10745 10747 10748 10748 10747 10747 10747 10745 10742 10741 10741 10741 10742 10742 10742 10743 10744 10745 10747 10750 10754 10757 10757 10754
10801 10803 10805 10806 10808 10809 10810 10811 10812 10814 10815 10816 10816 10816 10815 10814 10814 10815 10815 10815 10816 10815 10813 10813 10813 10812 10811 10810 10810 10810 10810 10809 10808 10807 10807 10806 10806 10805 10803 10802 10800 10799 10797 10795 10794 10791 10788 10786 10784 10782 10779 10777 10774 10771 10768 10764 10759 10754 10750 10746 10742 10740 10739 10741 10741 10741 10741 10742 10741 10738 10737 10737 10739 10739 10739 10739 10739 10740 10741 10742 10744 10746 10748 10749 10749
10792 10795 10796 10798 10799 10801 10801 10802 10804 10805 10806 10807 10807 10806 10805 10804 10804 10805 10805 10806 10806 10805 10804 10803 10802 10801 10801 10801 10800 10800 10800 10799 10798 10798 10797 10796 10796 10795 10794 10792 10791 10790 10788 10786 10784 10782 10780 10778 10776 10774 10771 10769 10766 10763 10761 10758 10753 10748 10745 10741 10738 10735 10734 10734 10734 10734 10734 10735 10736 10735 10734 10734 10734 10735 10734 10734 10734 10735 10736 10737 10739 10740 10742 10744 10745
10784 10785 10787 10789 10790 10792 10793 10794 10795 10795 10796 10797 10797 10796 10795 10794 10793 10794 10795 10795 10796 10796 10795 10793 10791 10791 10792 10792 10791 10790 10790 10790 10789 10788 10787 10786 10785 10784 10783 10783 10782 10781 10778 10776 10774 10773 10771 10769 10767 10765 10762 10760 10757 10755 10753 10751 10747 10743 10739 10736 10733 10730 10729 10728 10728 10729 10729 10729 10729 10729 10729 10729 10729 10730 10730 10729 10730 10730 10730 10732 10734 10736 10737 10738 10736
10775 10777 10779 10781 10783 10783 10784 10784 10783 10784 10785 10786 10786 10785 10784 10783 10783 10784 10784 10785 10785 10785 10785 10783 10781 10781 10782 10782 10781 10780 10780 10780 10779 10777 10776 10775 10775 10774 10773 10772 10772 10771 10769 10766 10764 10763 10762 10760 10758 10756 10754 10752 10750 10747 10745 10743 10741 10738 10734 10731 10728 10726 10725 10723 10722 10723 10724 10725 10724 10724 10723 10722 10723 10725 10725 10725 10725 10725 10725 10726 10728 10728 10728 10726 10723
10768 10770 10772 10773 10774 10774 10773 10772 10772 10773 10774 10775 10775 10775 10774 10773 10773 10773 10774 10774 10774 10775 10775 10774 10772 10771 10771 10771 10771 10770 10769 10768 10767 10767 10766 10765 10764 10764 10763 10762 10761 10760 10759 10757 10755 10754 10752 10751 10749 10747 10746 10744 10742 10740 10737 10735 10734 10733 10730 10726 10723 10721 10720 10718 10717 10717 10719 10720 10720 10719 10717 10716 10716 10717 10718 10718 10718 10718 10718 10718 10719 10719 10717 10714 10710
10761 10762 10763 10763 10763 10763 10762 10761 10761 10762 10763 10764 10765 10765 10764 10763 10763 10763 10764 10764 10764 10764 10764 10763 10763 10762 10761 10760 10760 10760 10758 10757 10755 10755 10754 10754 10754 10753 10752 10751 10751 10750 10748 10747 10745 10744 10742 10741 10739 10738 10737 10736 10734 10732 10729 10728 10727 10726 10724 10721 10719 10717 10715 10714 10713 10712 10712 10713 10714 10713 10712 10710 10709 10709 10709 10709 10709 10709 10709 10708 10708 10708 10706 10704 10700
10750 10751 10752 10752 10752 10751 10751 10751 10751 10752 10753 10754 10755 10755 10755 10754 10754 10754 10754 10754 10753 10753 10753 10752 10752 10751 10750 10749 10749 10749 10748 10746 10744 10743 10742 10743 10743 10742 10741 10741 10740 10739 10738 10737 10735 10734 10732 10731 10729 10728 10728 10726 10724 10722 10721 10720 10719 10718 10717 10715 10713 10712 10711 10709 10708 10707 10706 10705 10705 10705 10705 10705 10703 10702 10701 10700 10699 10699 10698 10697 10696 10695 10694 10692 10690
10738 10739 10740 10741 10741 10742 10742 10742 10742 10742 10743 10744 10745 10744 10745 10745 10744 10744 10744 10743 10743 10743 10742 10742 10741 10740 10739 10738 10737 10737 10736 10735 10733 10732 10732 10732 10732 10732 10731 10730 10730 10729 10728 10727 10726 10724 10723 10721 10719 10718 10717 10715 10713 10712 10711 10711 10710 10709 10709 10708 10706 10704 10703 10702 10701 10700 10699 10697 10696 10696 10697 10697 10697 10695 10693 10692 10690 10689 10688 10687 10686 10685 10683 10682 10680
10728 10729 10730 10731 10731 10731 10731 10731 10731 10732 10733 10733 10733 10733 10733 10733 10733 10733 10733 10733 10733 10732 10732 10731 10730 10729 10728 10726 10725 10724 10724 10724 10723 10722 10721 10721 10722 10722 10721 10720 10719 10718 10717 10716 10715 10714 10713 10711 10709 10707 10706 10704 10703 10702 10702 10700 10699 10697 10697 10697 10697 10696 10695 10694 10693 10692 10691 10689 10688 10687 10686 10687 10687 10687 10686 10684 10682 10680 10679 10678 10677 10675 10674 10672 10669
10717 10719 10720 10720 10720 10720 10719 10719 10720 10721 10722 10722 10721 10721 10721 10721 10721 10721 10722 10722 10722 10721 10721 10720 10719 10718 10716 10715 10713 10712 10712 10713 10712 10711 10711 10711 10712 10712 10711 10710 10709 10708 10707 10705 10703 10702 10700 10699 10698 10696 10695 10694 10693 10692 10691 10690 10688 10686 10686 10686 10686 10685 10684 10683 10683 10683 10682 10681 10679 10677 10676 10675 10674 10674 10674 10673 10672 10671 10670 10668 10667 10665 10663 10661 10659
10707 10708 10709 10709 10709 10708 10707 10707 10708 10709 10710 10710 10710 10710 10710 10710 10710 10710 10710 10710 10710 10710 10709 10709 10708 10707 10705 10703 10701 10700 10700 10701 10701 10700 10699 10699 10699 10700 10699 10698 10697 10696 10695 10693 10691 10689 10688 10687 10686 10685 10684 10683 10683 10681 10680 10678 10677 10675 10674 10674 10674 10674 10672 10671 10670 10670 10670 10670 10669 10668 10666 10664 10662 10661 10660 10660 10659 10658 10657 10656 10654 10652 10651 10649 10647
10695 10696 10696 10696 10696 10696 10696 10696 10696 10696 10697 10698 10698 10698 10699 10699 10699 10699 10699 10699 10699 10698 10698 10697 10696 10695 10694 10692 10690 10688 10687 10688 10688 10687 10686 10686 10686 10686 10685 10685 10684 10683 10682 10681 10679 10677 10676 10675 10674 10673 10673 10672 10671 10670 10669 10667 10665 10664 10662 10660 10659 10659 10659 10659 10658 10657 10658 10658 10658 10657 10656 10654 10652 10650 10648 10647 10645 10645 10644 10643 10641 10639 10637 10635 10634